Location: Goll?ig?dem
(16.6773°N, 80.7332°E)
Time: 07:36:03
(UTC+00:00)

PSLV R/B - Pass Details

Date: 21 April 2021
Orbit: 593 x 629 km, 98.0° (Epoch: 06 May)

Event Time Altitude Azimuth Distance (km) Brightness Sun altitude
Rises 22:55:13 0° 359° (N) 2,828 7.2 -19.7°
Reaches altitude 10° 22:57:30 10° 351° (N) 1,923 6.2 -19.2°
Maximum altitude 23:01:19 36° 284° (WNW) 939 4.0 -18.3°
Enters shadow 23:01:28 36° 279° (W) 942 4.0 -18.3°
